Location: Estrella Escondido
(31.8318°N, 104.8079°W)
Time: 02:53:27
(UTC-07:00)

OTV 5 (USA 277) - Visible Passes

Search period start: 23 January 2018 00:00
Search period end: 02 February 2018 00:00
Orbit: 404 x 417 km, 43.0° (Epoch: 07 September)

Date Brightness Start Highest point End Pass type
(mag) Time Alt. Az. Time Alt. Az. Time Alt. Az.
23 Jan ? 18:58:51 10° W 19:01:45 26° NNW 19:02:01 26° NNW visible
24 Jan ? 18:07:25 10° W 18:10:35 37° NNW 18:13:29 12° NE visible
25 Jan ? 18:55:02 10° NW 18:57:14 16° NNW 18:57:40 16° N visible
26 Jan ? 18:03:25 10° WNW 18:06:00 20° NNW 18:08:34 10° NNE visible
27 Jan ? 18:51:18 10° NNW 18:52:52 13° N 18:53:11 12° N visible
28 Jan ? 17:59:43 10° NW 18:01:34 14° N 18:03:24 10° NNE visible
29 Jan ? 18:46:57 10° NNW 18:48:33 13° N 18:48:43 13° N visible
30 Jan ? 17:55:46 10° NNW 17:57:13 12° N 17:58:41 10° NNE visible
30 Jan ? 19:32:49 10° NNW 19:32:55 10° NNW 19:32:55 10° NNW visible
31 Jan ? 18:41:55 10° NNW 18:44:10 16° NNE 18:44:24 16° NNE visible
01 Feb ? 19:27:37 10° NW 19:28:44 18° NW 19:28:44 18° NW visible
